International Skating Union - Official Site

ISU World Cup Speed Skating Calgary
December 1-3, 2017

Draw | Lap Times | Index | World Cup

Referee: Dan  IMMERFALL  (USA)
Starter: Brad  BATES  (CAN)
StartTime: EndTime: Air Temp: Ice Temp: Humidity:
10:45 11:41 16.5℃ -8.4℃ 29%
Result 3000m Ladies Division B
Rankings as of Dec 1 2017 12:22PM
Rank: No.: Name: Nation: Time: Behind: Points:
1 273 Carlijn  Achtereekte NED NED 3:58.63200m - 20.29 - (20.2)
600m - 50.56 - (30.2)
1000m - 1:21.07 - (30.5)
1400m - 1:51.73 - (30.6)
1800m - 2:22.89 - (31.1)
2200m - 2:54.33 - (31.4)
2600m - 3:26.34 - (32.0)
3000m - 3:58.63 - (32.2)
32
2 253 Ayaka  Kikuchi JPN JPN 4:01.89200m - 20.06 - (20.0)
600m - 50.61 - (30.5)
1000m - 1:21.21 - (30.5)
1400m - 1:51.80 - (30.5)
1800m - 2:23.15 - (31.3)
2200m - 2:55.28 - (32.1)
2600m - 3:28.13 - (32.8)
3000m - 4:01.89 - (33.7)
3.26 27
3 217 Brianne  Tutt CAN CAN 4:02.42200m - 19.91 - (19.9)
600m - 51.19 - (31.2)
1000m - 1:22.90 - (31.7)
1400m - 1:54.50 - (31.6)
1800m - 2:25.63 - (31.1)
2200m - 2:57.34 - (31.7)
2600m - 3:29.33 - (31.9)
3000m - 4:02.42 - (33.0)
3.79 23
4 249 Francesca  Lollobrigida ITA ITA 4:02.75200m - 20.23 - (20.2)
600m - 51.36 - (31.1)
1000m - 1:22.71 - (31.3)
1400m - 1:54.69 - (31.9)
1800m - 2:26.29 - (31.5)
2200m - 2:58.17 - (31.8)
2600m - 3:30.20 - (32.0)
3000m - 4:02.75 - (32.5)
4.12 19
5 291 Karolina  Bosiek POL POL 4:03.45200m - 20.19 - (20.1)
600m - 50.59 - (30.4)
1000m - 1:21.09 - (30.5)
1400m - 1:52.69 - (31.5)
1800m - 2:24.43 - (31.7)
2200m - 2:57.06 - (32.6)
2600m - 3:30.05 - (32.9)
3000m - 4:03.45 - (33.3)
4.82 15
6 290 Katarzyna  Bachleda-Curus POL POL 4:03.48200m - 20.05 - (20.0)
600m - 50.07 - (30.0)
1000m - 1:20.68 - (30.6)
1400m - 1:51.88 - (31.1)
1800m - 2:23.93 - (32.0)
2200m - 2:56.62 - (32.6)
2600m - 3:29.87 - (33.2)
3000m - 4:03.48 - (33.6)
4.85 11
7 243 Roxane  Dufter GER GER 4:03.53200m - 20.45 - (20.4)
600m - 50.88 - (30.4)
1000m - 1:21.62 - (30.7)
1400m - 1:52.52 - (30.9)
1800m - 2:23.80 - (31.2)
2200m - 2:55.97 - (32.1)
2600m - 3:29.21 - (33.2)
3000m - 4:03.53 - (34.3)
4.90 9
8 214 Josie  Morrison CAN CAN 4:03.79200m - 20.87 - (20.8)
600m - 52.35 - (31.4)
1000m - 1:24.23 - (31.8)
1400m - 1:56.76 - (32.5)
1800m - 2:28.98 - (32.2)
2200m - 3:00.54 - (31.5)
2600m - 3:31.86 - (31.3)
3000m - 4:03.79 - (31.9)
5.16 7
9 235 Nikola  Zdráhalova CZE CZE 4:03.87200m - 19.92 - (19.9)
600m - 51.09 - (31.1)
1000m - 1:21.88 - (30.7)
1400m - 1:53.26 - (31.3)
1800m - 2:24.89 - (31.6)
2200m - 2:57.38 - (32.4)
2600m - 3:30.30 - (32.9)
3000m - 4:03.87 - (33.5)
5.24 6
10 221 Jiachen  Hao CHN CHN 4:04.06200m - 20.42 - (20.4)
600m - 50.96 - (30.5)
1000m - 1:21.72 - (30.7)
1400m - 1:53.11 - (31.3)
1800m - 2:25.34 - (32.2)
2200m - 2:58.08 - (32.7)
2600m - 3:30.97 - (32.8)
3000m - 4:04.06 - (33.0)
5.43 5
11 296 Luiza  Zlotkowska POL POL 4:04.20200m - 20.02 - (20.0)
600m - 50.78 - (30.7)
1000m - 1:21.91 - (31.1)
1400m - 1:53.59 - (31.6)
1800m - 2:25.46 - (31.8)
2200m - 2:57.78 - (32.3)
2600m - 3:30.55 - (32.7)
3000m - 4:04.20 - (33.6)
5.57 4
12 223 Dan  Li CHN CHN 4:04.30200m - 20.92 - (20.9)
600m - 50.99 - (30.0)
1000m - 1:21.49 - (30.4)
1400m - 1:52.94 - (31.4)
1800m - 2:25.18 - (32.2)
2200m - 2:57.75 - (32.5)
2600m - 3:30.97 - (33.2)
3000m - 4:04.30 - (33.3)
5.67 3
13 241 Stephanie  Beckert GER GER 4:04.44200m - 21.57 - (21.5)
600m - 53.43 - (31.8)
1000m - 1:25.24 - (31.8)
1400m - 1:57.06 - (31.8)
1800m - 2:29.03 - (31.9)
2200m - 3:00.82 - (31.7)
2600m - 3:32.81 - (31.9)
3000m - 4:04.44 - (31.6)
5.81 2
14 288 Ida  Njåtun NOR NOR 4:05.33200m - 19.77 - (19.7)
600m - 50.12 - (30.3)
1000m - 1:21.22 - (31.1)
1400m - 1:52.84 - (31.6)
1800m - 2:24.99 - (32.1)
2200m - 2:57.60 - (32.6)
2600m - 3:31.07 - (33.4)
3000m - 4:05.33 - (34.2)
6.70 1
15 293 Magdalena  Czyszczon POL POL 4:05.35200m - 20.67 - (20.6)
600m - 50.97 - (30.3)
1000m - 1:21.18 - (30.2)
1400m - 1:52.54 - (31.3)
1800m - 2:24.39 - (31.8)
2200m - 2:57.29 - (32.9)
2600m - 3:30.87 - (33.5)
3000m - 4:05.35 - (34.4)
6.72 0
16 204 Jelena  Peeters BEL BEL 4:05.71200m - 20.48 - (20.4)
600m - 51.67 - (31.1)
1000m - 1:23.21 - (31.5)
1400m - 1:55.14 - (31.9)
1800m - 2:26.98 - (31.8)
2200m - 2:59.11 - (32.1)
2600m - 3:31.90 - (32.7)
3000m - 4:05.71 - (33.8)
7.08 0
17 301 Victoria  Filyushkina RUS RUS 4:06.14200m - 21.01 - (21.0)
600m - 52.32 - (31.3)
1000m - 1:23.71 - (31.3)
1400m - 1:55.70 - (31.9)
1800m - 2:27.81 - (32.1)
2200m - 3:00.21 - (32.4)
2600m - 3:32.79 - (32.5)
3000m - 4:06.14 - (33.4)
7.51 0
18 220 Mei  Han CHN CHN 4:06.28200m - 20.07 - (20.0)
600m - 50.75 - (30.6)
1000m - 1:21.46 - (30.7)
1400m - 1:52.73 - (31.2)
1800m - 2:24.89 - (32.1)
2200m - 2:58.06 - (33.1)
2600m - 3:31.93 - (33.8)
3000m - 4:06.28 - (34.3)
7.65 0
19 316 Mia  Manganello USA USA 4:06.98200m - 20.14 - (20.1)
600m - 50.88 - (30.7)
1000m - 1:21.71 - (30.8)
1400m - 1:53.14 - (31.4)
1800m - 2:25.04 - (31.8)
2200m - 2:57.37 - (32.3)
2600m - 3:31.05 - (33.6)
3000m - 4:06.98 - (35.9)
8.35 0
20 261 Nana  Takahashi JPN JPN 4:07.33200m - 20.01 - (20.0)
600m - 50.42 - (30.4)
1000m - 1:21.52 - (31.0)
1400m - 1:52.95 - (31.4)
1800m - 2:24.96 - (32.0)
2200m - 2:57.38 - (32.4)
2600m - 3:31.55 - (34.1)
3000m - 4:07.33 - (35.7)
8.70 0
21 294 Katarzyna  Wozniak POL POL 4:07.64200m - 20.82 - (20.8)
600m - 51.73 - (30.9)
1000m - 1:22.92 - (31.1)
1400m - 1:54.61 - (31.6)
1800m - 2:26.53 - (31.9)
2200m - 2:58.86 - (32.3)
2600m - 3:32.40 - (33.5)
3000m - 4:07.64 - (35.2)
9.01 0
22 303 Olga  Graf RUS RUS 4:07.68200m - 21.54 - (21.5)
600m - 53.31 - (31.7)
1000m - 1:25.20 - (31.8)
1400m - 1:57.36 - (32.1)
1800m - 2:29.65 - (32.2)
2200m - 3:01.96 - (32.3)
2600m - 3:34.65 - (32.6)
3000m - 4:07.68 - (33.0)
9.05 0
23 237 Saskia  Alusalu EST EST 4:07.76200m - 20.16 - (20.1)
600m - 50.85 - (30.6)
1000m - 1:22.16 - (31.3)
1400m - 1:53.80 - (31.6)
1800m - 2:25.78 - (31.9)
2200m - 2:58.69 - (32.9)
2600m - 3:32.62 - (33.9)
3000m - 4:07.76 - (35.1)
9.13 0
24 246 Michelle  Uhrig GER GER 4:09.60200m - 20.36 - (20.3)
600m - 51.16 - (30.7)
1000m - 1:22.73 - (31.5)
1400m - 1:54.40 - (31.6)
1800m - 2:26.81 - (32.4)
2200m - 3:00.01 - (33.1)
2600m - 3:34.49 - (34.4)
3000m - 4:09.60 - (35.1)
10.97 0
25 236 Elena Moeller  Rigas DEN DEN 4:11.69200m - 20.64 - (20.6)
600m - 51.98 - (31.3)
1000m - 1:23.16 - (31.1)
1400m - 1:55.56 - (32.4)
1800m - 2:28.54 - (32.9)
2200m - 3:02.36 - (33.8)
2600m - 3:36.76 - (34.3)
3000m - 4:11.69 - (34.9)
13.06 0
26 264 Yelena  Urvantseva KAZ KAZ 4:12.96200m - 20.48 - (20.4)
600m - 52.34 - (31.8)
1000m - 1:24.59 - (32.2)
1400m - 1:57.28 - (32.6)
1800m - 2:30.54 - (33.2)
2200m - 3:04.26 - (33.7)
2600m - 3:38.38 - (34.1)
3000m - 4:12.96 - (34.5)
14.33 0
27 270 Ji Woo  Park KOR KOR 4:13.59200m - 20.18 - (20.1)
600m - 51.18 - (31.0)
1000m - 1:23.02 - (31.8)
1400m - 1:55.98 - (32.9)
1800m - 2:29.76 - (33.7)
2200m - 3:04.21 - (34.4)
2600m - 3:38.65 - (34.4)
3000m - 4:13.59 - (34.9)
14.96 0
28 233 Natálie  Kerschbaummayr CZE CZE 4:17.64200m - 21.33 - (21.3)
600m - 53.57 - (32.2)
1000m - 1:26.25 - (32.6)
1400m - 1:58.99 - (32.7)
1800m - 2:32.08 - (33.0)
2200m - 3:05.91 - (33.8)
2600m - 3:41.22 - (35.3)
3000m - 4:17.64 - (36.4)
19.01 0
29 250 Gloria  Malfatti ITA ITA 4:18.75200m - 21.04 - (21.0)
600m - 52.82 - (31.7)
1000m - 1:25.50 - (32.6)
1400m - 1:58.48 - (32.9)
1800m - 2:32.03 - (33.5)
2200m - 3:06.48 - (34.4)
2600m - 3:41.81 - (35.3)
3000m - 4:18.75 - (36.9)
20.12 0
30 202 Viola  Feichtner AUT AUT 4:19.31200m - 20.99 - (20.9)
600m - 53.47 - (32.4)
1000m - 1:26.16 - (32.6)
1400m - 1:59.39 - (33.2)
1800m - 2:33.17 - (33.7)
2200m - 3:07.52 - (34.3)
2600m - 3:43.30 - (35.7)
3000m - 4:19.31 - (36.0)
20.68 0
31 240 Gemma  Cooper GBR GBR 4:21.77200m - 21.97 - (21.9)
600m - 54.49 - (32.5)
1000m - 1:27.28 - (32.7)
1400m - 2:01.01 - (33.7)
1800m - 2:35.40 - (34.3)
2200m - 3:10.48 - (35.0)
2600m - 3:45.83 - (35.3)
3000m - 4:21.78 - (35.9)
23.15 0
32 230 Laura  Gomez COL COL 4:24.95200m - 21.37 - (21.3)
600m - 53.27 - (31.9)
1000m - 1:26.47 - (33.2)
1400m - 2:00.61 - (34.1)
1800m - 2:35.25 - (34.6)
2200m - 3:10.68 - (35.4)
2600m - 3:47.46 - (36.7)
3000m - 4:24.95 - (37.5)
26.32 0
33 310 Ramona  Härdi SUI SUI 4:25.64200m - 21.57 - (21.5)
600m - 54.29 - (32.7)
1000m - 1:28.00 - (33.7)
1400m - 2:02.15 - (34.1)
1800m - 2:36.89 - (34.7)
2200m - 3:12.36 - (35.4)
2600m - 3:48.70 - (36.3)
3000m - 4:25.65 - (36.9)
27.02 0